Location: Caracas
(10.5033°N, 66.8422°W)
Time: 03:34:37
(UTC-04:00)

Vanguard 1 - Visible Passes

Search period start: 21 February 2018 00:00
Search period end: 03 March 2018 00:00
Orbit: 650 x 3833 km, 34.2° (Epoch: 20 February)

Date Brightness Start Highest point End Pass type
(mag) Time Alt. Az. Time Alt. Az. Time Alt. Az.
21 Feb 11.6 20:17:37 10° NNW 20:18:26 12° N 20:18:26 12° N visible
22 Feb 11.7 20:37:44 10° NNW 20:38:31 13° NNW 20:38:31 13° NNW visible
23 Feb 12.0 20:58:15 10° NW 20:58:39 12° NW 20:58:39 12° NW visible
24 Feb 11.4 18:59:43 10° NNW 19:02:23 13° NNE 19:04:44 10° NE visible
25 Feb 11.0 19:19:57 10° NNW 19:23:58 19° NNE 19:26:12 14° NE visible
26 Feb 10.3 19:40:29 10° NW 19:45:22 29° NNE 19:46:25 26° NE visible
27 Feb 9.5 20:01:14 10° NW 20:06:32 50° NNE 20:06:39 50° NE visible
28 Feb 14.1 05:44:33 10° SSE 05:51:43 13° SE 05:59:36 10° ESE visible
28 Feb 9.5 20:22:14 10° NW 20:26:54 67° WNW 20:26:54 67° WNW visible
01 Mar 14.1 06:02:19 10° S 06:14:13 19° SE 06:27:54 10° ESE visible
01 Mar 10.7 20:43:35 10° WNW 20:47:12 36° WSW 20:47:12 36° WSW visible
02 Mar 14.0 06:21:31 10° S 06:36:17 26° SE 06:53:31 10° E visible
02 Mar 11.7 21:05:27 10° W 21:07:30 18° WSW 21:07:30 18° WSW visible
